Location: Unspecified
(0.0000°N, 0.0000°E)
Time: 09:49:59
(UTC+00:00)

Tiangong 2 - Pass Details

Date: 29 April 2017
Orbit: 389 x 393 km, 42.8° (Epoch: 21 September)

Event Time Altitude Azimuth Distance (km) Brightness Sun altitude
Exits shadow 03:49:33 10° 87° (E) 1,388 4.7 -30.8°
Drops below altitude 10° 03:49:38 10° 86° (E) 1,414 4.8 -30.8°
Enters shadow 04:47:01 -68° 225° (SW) 12,275 8.6 -17.0°
